Tracking 19846 objects as of 18-Sep-2019
HD Live streaming from Space Station
objects crossing your sky now

COSMOS 530

Track COSMOS 530 now!
10-day predictions
COSMOS 530 is classified as:


NORAD ID: 6265
Int'l Code: 1972-087C
Perigee: 1,339.0 km
Apogee: 1,474.9 km
Inclination: 74.0 °
Period: 113.8 minutes
Semi major axis: 7777 km
RCS: 0.7215 m2 (medium)
Launch date: November 1, 1972
Source: Commonwealth of Independent States (former USSR) (CIS)
Launch site: PLESETSK MISSILE AND SPACE COMPLEX (PKMTR)
aabbcc
Your satellite tracking list
Your tracking list is empty




NASA's NSSDC Master Catalog

Two Line Element Set (TLE):
1  6265U 72087C   19260.84250375 -.00000026 +00000-0 -45701-4 0  9996
2  6265 074.0338 070.2319 0087303 236.4303 229.6372 12.65625278165793
Source of the keplerian elements: AFSPC